Theta_e
288 288 287 287 287 287 287 287 287 286 285 285 285 285 284 284 284 284 284 284 283 284 283 283 283 283 283 283 283 283 283 283 284 284 284 284 284 284 283 283 283 283 282
288 287 287 287 287 287 287 287 286 286 285 285 285 284 284 284 284 284 284 283 283 284 284 283 283 283 283 283 283 283 283 283 283 283 283 283 283 283 283 283 283 283 282
288 287 287 287 287 287 287 286 286 285 285 284 284 284 284 284 283 283 283 283 283 283 283 283 283 283 283 283 283 283 283 283 283 283 283 283 283 282 282 282 282 282 282
288 287 287 287 287 286 286 286 286 285 285 284 284 284 283 283 283 283 283 283 283 283 282 282 282 282 282 282 282 282 282 281 281 281 281 282 282 283 283 283 282 281 281
288 288 287 287 287 286 286 286 285 285 284 284 283 283 283 282 282 282 282 282 282 283 282 282 281 281 281 280 280 280 280 280 280 280 281 281 281 280 280 280 280 279 279
288 288 287 287 286 286 286 285 285 284 284 283 282 282 282 282 282 282 282 282 282 281 281 281 280 279 279 278 278 278 278 278 278 279 279 279 279 278 278 278 277 276 276
288 288 287 286 286 285 285 284 284 283 283 282 282 282 281 281 281 281 281 281 280 279 278 278 277 277 276 275 275 276 277 277 277 277 277 277 277 276 274 274 273 273 273
288 287 286 285 284 284 284 283 283 282 281 280 280 280 279 279 279 278 278 278 277 276 276 275 274 274 274 274 274 274 275 275 276 276 276 275 274 273 273 272 271 271 271
286 285 284 284 283 282 281 281 280 279 278 277 277 277 277 277 277 276 276 275 275 274 274 273 272 272 272 273 274 274 275 274 273 273 273 273 272 271 270 269 269 269 269
281 281 281 281 280 279 278 277 276 277 275 275 274 274 274 274 275 274 274 274 274 274 273 273 272 272 272 273 274 274 273 272 271 271 270 269 268 267 267 267 267 267 267
277 277 277 277 277 276 275 275 274 273 273 272 271 270 271 271 272 272 272 272 272 273 272 272 272 272 272 273 273 272 271 271 270 268 267 266 265 265 265 265 265 265 264
273 273 273 273 273 273 273 272 271 271 271 270 270 269 268 268 269 270 271 271 271 271 271 271 270 271 272 271 271 270 270 269 267 265 264 264 264 264 263 263 262 262 263
271 270 270 270 270 270 270 270 270 270 270 270 270 269 269 268 268 269 269 270 271 270 270 270 271 270 270 269 268 268 267 264 263 263 263 262 262 262 262 261 261 261 261
268 268 268 268 269 269 269 269 269 269 269 269 269 268 268 268 267 268 269 269 269 269 269 269 268 268 267 267 265 264 263 262 262 261 261 261 261 261 261 260 261 260 260
267 267 267 267 267 268 268 268 268 268 269 268 268 267 267 266 267 268 268 268 268 268 269 267 265 265 264 263 263 262 261 261 261 260 260 260 260 259 259 260 259 259 259
266 266 265 266 266 266 266 266 267 267 267 266 266 265 265 265 266 266 266 267 267 268 266 264 263 262 261 261 260 260 260 260 259 259 258 258 259 259 259 259 258 259 259
264 264 263 264 263 263 263 264 263 263 263 263 263 263 263 263 263 264 265 265 265 264 261 260 260 259 259 259 259 259 258 258 258 258 258 258 258 258 257 258 258 258 259
263 263 263 262 262 261 261 261 261 260 260 260 261 261 261 260 261 262 263 262 259 258 258 257 257 257 257 257 257 257 257 257 256 256 257 256 256 256 257 257 257 258 258
263 262 261 261 260 260 259 259 259 258 258 258 258 258 257 257 259 260 259 256 256 256 256 256 256 255 255 255 255 255 255 255 255 255 256 256 256 256 257 257 257 257 257
260 260 260 259 258 258 258 258 257 257 256 256 256 255 256 256 257 255 255 254 254 254 254 254 254 254 254 254 254 254 254 254 255 255 255 255 255 256 256 256 257 257 258
259 259 258 258 257 257 256 256 256 255 255 255 255 254 257 256 254 254 254 253 253 253 253 253 253 252 252 253 253 253 253 253 254 254 254 254 255 255 256 256 256 257 257
258 257 257 257 256 256 255 255 254 254 254 254 254 253 254 253 253 253 253 252 252 252 252 251 251 251 251 252 252 252 252 252 253 253 253 254 254 255 255 256 256 256 257
257 256 256 255 255 254 254 254 253 253 253 253 253 253 252 252 252 251 251 251 251 251 251 250 250 250 251 251 251 251 251 251 252 252 253 254 254 255 255 256 256 256 257
256 255 255 254 254 254 253 253 253 253 252 252 252 252 251 251 251 251 250 250 250 250 250 250 250 250 251 251 251 251 252 252 252 252 252 253 253 254 255 255 256 257 257
255 254 254 254 253 253 253 252 252 252 252 251 251 251 251 250 250 250 250 250 250 250 250 250 251 251 251 252 252 253 253 254 255 254 253 254 254 255 256 257 257 258 259
254 254 253 253 252 252 252 252 252 251 251 251 251 250 250 250 250 250 250 250 250 250 250 251 252 252 252 253 254 255 256 257 256 255 256 257 257 258 259 260 260 260 260
Wind_Speed
31 29 28 27 26 23 22 21 19 17 17 17 16 15 14 12 11 10 8 7 6 4 3 2 2 4 3 5 6 7 9 10 14 19 19 21 23 24 25 25 24 26 28
30 29 27 26 26 24 22 22 22 21 19 19 17 16 14 13 11 10 8 7 6 5 4 4 4 5 6 7 8 10 12 14 17 21 21 22 23 24 26 28 30 29 29
29 28 27 26 25 24 23 22 23 23 21 20 19 18 16 14 12 10 9 8 6 6 5 5 5 6 8 8 10 12 14 15 17 20 23 22 23 24 27 28 30 32 31
28 28 27 27 25 24 22 23 22 23 23 21 20 18 16 14 12 11 10 8 7 6 6 6 6 7 8 9 10 12 14 16 18 22 25 24 22 22 22 24 25 28 31
28 27 27 26 24 23 22 22 21 21 21 21 19 17 15 13 12 11 10 9 7 5 5 5 7 8 11 12 10 13 15 17 18 20 23 23 21 23 24 25 28 34 35
27 26 25 25 24 23 22 21 20 18 18 18 18 16 13 11 11 10 9 6 4 3 4 6 7 7 7 9 9 11 14 17 19 20 22 22 22 24 27 23 23 22 16
25 25 25 25 24 23 22 21 20 18 16 16 15 14 11 8 7 7 7 4 4 4 4 5 6 6 9 11 13 14 14 15 18 23 24 24 24 13 26 26 25 28 34
24 24 24 25 24 23 23 22 21 20 18 16 15 14 12 10 8 6 5 4 2 2 4 6 6 8 10 13 16 17 18 18 18 17 17 23 24 29 30 31 35 37 39
21 21 23 27 29 29 29 26 22 21 19 18 17 16 16 13 9 5 4 3 2 3 4 5 7 9 10 15 19 21 21 16 16 19 26 27 29 33 34 35 31 28 28
24 25 26 27 28 27 26 24 22 22 21 19 18 16 15 15 9 8 5 4 4 4 5 7 8 10 13 17 19 18 17 17 24 27 26 32 34 37 29 25 26 25 27
27 28 28 27 29 28 28 26 25 24 23 20 19 15 13 11 10 8 8 5 5 7 8 10 10 13 18 19 20 22 22 29 28 26 28 29 27 25 24 23 22 23 28
32 33 32 30 29 29 30 27 25 25 23 19 16 13 10 8 7 7 7 7 8 9 11 13 17 19 21 22 25 24 26 27 29 26 24 24 25 26 26 26 30 30 28
35 34 33 32 31 30 30 27 24 21 18 14 11 9 6 4 4 6 8 10 11 14 15 19 22 20 24 23 22 22 24 18 18 19 21 25 26 27 30 29 30 28 31
34 31 30 32 30 28 26 23 22 18 15 11 9 6 4 5 6 8 11 13 14 17 20 22 18 20 19 20 19 18 16 16 17 20 22 25 26 26 27 26 27 31 30
33 30 29 28 28 28 25 22 22 16 12 10 8 6 5 5 7 12 15 18 19 22 26 17 16 16 17 17 17 17 16 16 17 19 21 23 25 25 25 25 26 28 28
30 26 25 26 25 26 25 24 18 15 13 11 9 6 4 6 10 14 17 20 22 24 21 17 17 17 17 17 17 18 17 18 18 19 22 23 23 24 26 27 26 25 27
29 26 25 24 22 18 15 11 9 8 8 8 8 8 7 9 14 18 20 22 20 18 15 16 16 17 17 18 19 19 20 19 20 20 21 22 23 25 25 26 25 26 27
31 27 25 21 18 15 12 10 7 5 4 6 8 10 10 14 17 18 17 17 16 15 14 15 17 18 18 19 20 20 21 21 20 21 21 23 24 24 25 25 25 26 27
28 24 21 19 16 13 10 8 6 5 5 7 12 13 14 16 15 12 13 12 13 14 14 15 16 17 19 19 20 21 21 22 22 24 23 23 23 24 26 26 26 29 30
24 19 17 14 12 9 8 6 4 5 7 8 10 11 17 17 15 15 14 13 13 14 15 15 16 17 19 20 21 21 22 22 22 22 23 24 25 24 26 27 28 28 28
19 16 14 11 9 7 6 5 6 6 6 7 8 10 14 16 15 12 14 15 16 16 17 17 18 19 19 20 21 21 22 23 23 24 25 25 25 26 27 28 29 30 30
14 12 10 8 6 5 4 4 3 4 5 8 10 12 13 13 12 13 14 16 16 18 19 19 20 21 21 23 23 23 23 24 25 25 25 26 27 27 28 29 30 30 30
11 8 7 6 5 4 2 3 4 5 7 9 10 12 13 13 15 16 17 18 20 20 21 22 23 24 24 25 25 24 26 27 27 26 28 29 30 30 30 31 31 31 30
7 6 5 3 2 2 3 4 5 7 9 9 11 13 14 15 16 17 19 21 22 24 24 23 24 25 26 26 27 27 27 28 29 31 30 32 33 33 32 32 33 33 33
5 4 3 3 2 4 5 6 7 8 9 11 13 14 15 17 18 20 21 22 23 25 25 25 25 26 26 27 28 28 28 27 26 26 27 32 35 37 38 37 36 35 34
3 3 2 3 4 5 6 7 9 10 12 13 15 16 17 19 20 21 23 23 24 25 26 27 26 26 27 28 27 25 23 22 25 28 31 33 35 37 35 35 35 34 35
Wind_Direction
185 183 182 184 187 185 188 187 184 182 184 182 182 182 184 184 181 174 174 179 173 180 198 210 246 270 275 278 278 277 274 269 272 279 283 288 292 295 296 296 294 292 290
184 183 182 182 185 187 187 188 188 186 189 188 188 189 192 191 193 190 189 192 195 204 216 241 259 268 278 282 281 281 281 281 282 286 287 289 287 292 293 295 295 293 292
181 180 180 181 184 186 188 188 191 191 192 191 193 195 195 199 200 202 202 205 215 222 233 248 265 275 283 289 290 288 288 289 288 290 293 294 293 292 289 286 287 289 288
178 180 181 185 185 185 185 186 191 196 196 197 199 199 202 205 208 210 214 221 226 235 246 254 263 273 285 288 291 293 297 297 295 290 289 292 294 298 292 297 300 295 293
178 182 184 182 181 182 181 182 187 194 196 199 199 200 205 208 215 217 223 229 231 237 250 263 270 263 270 284 290 293 295 297 298 299 297 300 303 307 302 302 297 297 294
179 181 177 175 176 178 175 175 174 179 185 189 192 196 197 206 219 221 226 222 216 223 239 253 283 297 288 293 302 298 295 297 295 297 297 297 305 308 303 312 323 326 312
176 175 171 170 170 170 168 166 163 161 164 171 176 180 172 169 136 155 167 163 178 228 258 274 289 292 302 310 314 312 305 298 293 298 299 298 301 342 330 323 315 307 298
168 166 162 160 158 157 157 153 147 154 164 161 156 146 145 120 119 122 148 177 201 259 288 298 303 305 317 324 324 314 309 304 302 304 308 312 310 314 314 310 304 299 295
151 147 148 150 145 148 146 149 155 154 147 143 144 142 129 111 100 96 104 91 20 337 321 313 314 314 323 327 320 312 308 299 300 301 299 296 298 301 303 307 301 302 296
122 128 142 149 151 148 148 142 143 144 137 136 130 133 130 110 86 73 52 56 28 353 327 321 317 318 319 320 311 314 314 314 313 310 303 303 303 305 304 299 296 295 297
127 130 132 139 139 139 135 135 134 132 130 125 121 116 118 116 84 63 45 40 6 334 323 316 309 307 310 308 309 314 309 308 312 306 308 306 304 303 304 302 299 298 296
119 116 114 117 117 122 124 122 123 122 116 111 110 103 93 85 63 43 22 6 344 331 318 311 306 305 306 307 307 305 304 305 305 307 304 302 304 305 306 303 301 298 289
108 104 105 106 107 112 111 108 105 107 103 102 101 97 83 52 29 9 359 342 328 319 313 306 305 304 305 303 303 305 307 306 303 301 299 298 300 302 304 305 305 302 302
100 99 101 101 101 101 99 100 100 100 101 101 95 83 58 30 8 355 340 332 324 317 313 310 304 306 305 303 305 306 303 302 300 295 294 297 301 305 305 306 306 310 309
102 101 98 97 99 98 94 93 92 86 92 92 81 65 32 1 337 327 322 320 317 316 316 317 322 318 311 309 307 305 307 306 303 300 299 302 303 304 303 306 305 306 301
103 101 101 102 99 100 98 93 84 87 84 82 71 50 359 330 322 320 319 319 318 316 317 320 316 312 309 311 312 310 309 306 303 302 301 299 300 303 303 304 303 301 299
101 101 99 99 98 97 98 103 105 90 83 69 39 15 359 336 332 328 325 321 316 314 319 311 309 311 312 313 310 307 304 303 303 299 297 299 301 301 302 302 302 301 301
108 108 104 101 102 102 98 95 89 67 23 349 343 356 350 344 337 330 325 320 326 323 318 314 311 310 308 306 304 302 302 302 301 299 300 300 299 298 299 300 302 302 301
107 104 106 106 103 100 93 81 64 35 4 339 337 342 339 343 338 330 330 333 325 318 314 309 307 306 302 300 300 300 299 300 300 300 300 299 299 301 299 298 299 300 301
105 104 104 100 96 89 82 70 43 10 356 344 338 335 336 344 338 336 333 326 319 314 312 309 306 302 300 300 300 300 301 301 301 300 299 299 300 300 298 300 300 300 300
108 104 99 94 86 75 59 39 14 1 343 322 319 325 332 326 323 321 318 314 310 308 309 305 302 300 298 298 299 300 299 298 298 297 299 300 301 300 299 299 299 298 298
103 97 90 82 73 56 36 29 360 330 321 324 325 320 324 322 315 310 306 302 301 301 300 300 299 298 296 296 298 297 297 295 296 298 299 299 299 298 298 297 297 296 296
95 89 80 69 61 53 35 353 343 332 323 318 316 314 316 311 308 306 303 302 303 305 306 304 301 301 303 301 299 295 291 291 294 295 295 296 297 296 296 294 293 293 293
81 83 91 90 63 12 351 335 328 327 321 313 313 313 308 305 303 302 305 307 306 310 312 309 305 302 303 304 306 304 300 299 297 294 293 292 292 293 292 290 290 289 289
92 96 78 47 355 326 329 332 325 318 315 314 309 305 304 303 305 308 309 309 310 312 313 313 311 310 309 308 307 307 307 305 300 301 303 300 291 290 288 286 285 288 288
76 55 18 340 329 321 316 314 313 312 310 307 305 304 305 306 309 310 311 312 313 313 314 314 315 315 315 314 314 315 314 311 309 310 304 294 290 291 290 290 292 291 290